Regional Weather Roundup
Issued by NWS

Home | Current Version | Previous Version | Graphics & Text | Print | Product List | Glossary On
Versions: 1 2 3 4 5 6 7 8 9 10 11 12 13 14 15 16 17 18 19 20 21 22 23 24 25 26 27 28 29 30 31 32 33 34 35 36 37 38 39 40 41 42 43 44 45 46 47 48 49 50
798
ASUS43 KLOT 231903
RWRIL

ILLINOIS REGIONAL WEATHER ROUNDUP
NATIONAL WEATHER SERVICE CHICAGO/ROMEOVILLE IL
200 PM CDT SUN APR 23 2017

NOTE: "FAIR" INDICATES FEW OR NO CLOUDS BELOW 12,000 FEET WITH NO
SIGNIFICANT WEATHER AND/OR OBSTRUCTIONS TO VISIBILITY.

* THESE STATIONS ARE NOT UNDER NWS QUALITY CONTROL. THEY ALSO MAY NOT
  REPORT WEATHER SUCH AS PRECIPITATION OR FOG.

ILZ001-002-007-009-015-016-024-232000-
NORTHWEST ILLINOIS

CITY           SKY/WX    TMP DP  RH WIND       PRES   REMARKS
MOLINE         SUNNY     70  33  25 VRB7      30.07F
STERLING*      SUNNY     70  33  25 CALM      30.08F
SAVANNA*       SUNNY     68  34  28 NW6       30.08F
$$

ILZ003-004-008-010-011-017-018-232000-
NORTH CENTRAL ILLINOIS

CITY           SKY/WX    TMP DP  RH WIND       PRES   REMARKS
ROCKFORD       MOSUNNY   70  32  24 SW5       30.08F
FREEPORT*      SUNNY     67  34  29 N3        30.09F
ROCHELLE*      SUNNY     67  35  30 N5        30.08F
DE KALB*       SUNNY     67  32  27 N5        30.07F
$$

ILZ005-006-012>014-019>023-232000-
NORTHEAST ILLINOIS

CITY           SKY/WX    TMP DP  RH WIND       PRES   REMARKS
CHICAGO-OHARE  SUNNY     71  25  17 N6        30.06F
CHICAGO-MIDWAY SUNNY     68  30  24 NE8       30.07F
AURORA         SUNNY     69  31  24 VRB7      30.06F
LANSING*       SUNNY     65  35  32 NE7       30.08F
WAUKEGAN       SUNNY     67  35  30 SE12      30.05F
DUPAGE AIRPORT SUNNY     71  33  24 CALM      30.05F
WHEELING       SUNNY     69  30  23 W5        30.07F
MORRIS*        SUNNY     69  27  21 CALM      30.06F
NORTHERLY ISL    N/A     58  40  51 E1          N/A
$$

LMZ740>746-232000-
SOUTHERN LAKE MICHIGAN

STATION/POSITION SKY/WX   TEMP    WIND        PRES    VSBY  WAVE
                          AIR SEA DIR/SP/G                  HT/PER
                          (F)     (DEG/KT/KT) (MB)    (MI)  (FT/S)
HARRISON CRIB              55     130/  9/  9   N/A
BURNHAM HARBOR             59     130/  3/  7   N/A
CALUMET HARBOR             56      60/  6/  7 1018.4F
BURNS HARBOR               54      50/  5/  5 1019.6F
MICHIGAN CITY              49      20/  4/  5   N/A
ST. JOSEPH                 50 52   CALM  /  2 1019.4F         0
$$

ILZ025>027-034>036-040-047-049-050-058-095>099-232000-
WEST-CENTRAL ILLINOIS

CITY           SKY/WX    TMP DP  RH WIND       PRES   REMARKS
QUINCY         SUNNY     69  27  20 NE8       30.08F
GALESBURG*     SUNNY     69  31  24 E3        30.07F
MACOMB*        SUNNY     69  30  23 NE9       30.10F
JACKSONVILLE*  SUNNY     67  28  23 N5G10     30.07F
PITTSFIELD*    SUNNY     68  29  23 NE8       30.09F
$$

ILZ028>032-037-038-041>044-048-051>054-059>061-232000-
CENTRAL ILLINOIS

CITY           SKY/WX    TMP DP  RH WIND       PRES   REMARKS
BLOOMINGTON    SUNNY     69  27  20 N18G29    30.07F
DECATUR        SUNNY     69  37  30 NE13G21   30.05F
PEORIA         SUNNY     69  32  25 E12       30.07F
SPRINGFIELD    SUNNY     71  30  21 NE12G21   30.06F
TAYLORVILLE    NOT AVBL
$$

ILZ033-039-045-046-055>057-062-063-232000-
EAST-CENTRAL ILLINOIS

CITY           SKY/WX    TMP DP  RH WIND       PRES   REMARKS
CHAMPAIGN      SUNNY     70  30  22 NE9G18    30.04F
MATTOON        SUNNY     69  31  24 NE21G28   30.02F
PARIS*         SUNNY     68  31  24 NE15G22   30.03F
$$

ILZ079-100>102-232000-
SOUTHWEST ILLINOIS

CITY           SKY/WX    TMP DP  RH WIND       PRES   REMARKS
ALTON          SUNNY     68  32  26 N9G17     30.05F
BELLEVILLE     SUNNY     69  33  26 NE13G21   30.01F
CAHOKIA*       SUNNY     69  29  22 N15G23    30.03F
SPARTA*        SUNNY     65  39  39 N13G22    30.03F
$$

ILZ064>066-069>071-074>076-080>082-084>086-088>090-092>094-232000-
SOUTH-CENTRAL ILLINOIS

CITY           SKY/WX    TMP DP  RH WIND       PRES   REMARKS
CARBONDALE     SUNNY     65  41  41 N18G25    29.99F
CAIRO*         SUNNY     64  45  49 N15G25    29.93F
EFFINGHAM*     SUNNY     69  35  28 N13G18    30.03S
MARION         SUNNY     64  41  42 N16G22    29.98F
MT. VERNON     SUNNY     67  34  29 NE16G22   29.99F
CENTRALIA*     SUNNY     67  40  36 N13G18    30.00F
SALEM*         SUNNY     69  32  26 NE10G18   30.01S
$$

ILZ067-068-072-073-078-083-087-091-232000-
SOUTHEAST ILLINOIS

CITY           SKY/WX    TMP DP  RH WIND       PRES   REMARKS
LAWRENCEVILLE  SUNNY     69  36  29 N16G25    29.99F
FLORA*         SUNNY     68  37  31 NE15G21   30.01S
FAIRFIELD*     SUNNY     67  38  34 N12G17    29.97F
HARRISBURG*    SUNNY     65  43  44 N12G18    29.97F
ROBINSON*      SUNNY     69  33  27 NE17G23   30.01S
CARMI*         SUNNY     66  41  40 N18G28    29.95F
$$

ABBREVIATIONS USED IN REMARKS
   TC - TEMPERATURE IN CELSIUS
  WCI - WIND CHILL INDEX
   HX - HEAT INDEX
  VSB - VISIBILITY
$$





USA.gov is the U.S. government's official web portal to all federal, state and local government web resources and services.